Starlink 5906

operational
NORAD ID: 55962 Int'l Des: 2023-037 Owner: SPXS Country: US Constellation: starlink
LEOCIRCULAR

About Starlink 5906

Description loading...

Live Position

Loading 3D Globe...

Upcoming Passes

Altitude History

Altitude vs Time

uPlot chart will show altitude changes over time

Two-Line Element Set

1 55962U 23037BA 25304.80220904 .00000998 00000-0 91427-4 0 9994
2 55962 69.9992 229.5574 0002870 270.3503 89.7327 14.98325806145163
Epoch: Oct 31, 2025 • Age: 10 hours

Current Status

Altitude 574.2 km
Velocity 7.57 km/s
Sub-Earth Point 11.85°N, 80.82°W
Launch Date Mar 17, 2023
Age 2.6 years
Type internet

Technical Details

Classification Payload
Mass 305.00 kg
Dry Mass 290.00 kg
Total Mass 305.00 kg
Length 0.20 m
Diameter 2.80 m
Span 9.00 m
Shape Box + pan
Manufacturer SPXS
Bus Type Starlink
Phase Status In Orbit
Owner/State SPXS/US

Large Constellations

Loading constellations...